Location: Newark
(7.0858°N, 171.3717°E)
Time: 14:57:06
(UTC+00:00)

Courier 1B Rocket - Pass Details

Date: 29 November 2020
Orbit: 920 x 1202 km, 28.2° (Epoch: 20 January)

Event Time Altitude Azimuth Distance (km) Brightness Sun altitude
Rises 18:03:14 0° 287° (WNW) 4,075 - -7.2°
Exits shadow 18:05:58 - 298° (WNW) 3,381 7.1 -6.6°
Reaches altitude 10° 18:07:08 10° 305° (NW) 3,124 7.0 -6.3°
Maximum altitude 18:12:18 19° 346° (NNW) 2,526 6.9 -5.1°
Drops below altitude 10° 18:17:25 10° 28° (NNE) 3,099 7.7 -3.9°
Sets 18:21:17 0° 46° (NE) 4,030 8.6 -3.0°
